Ithaca, NY

12:22 PM EST on February 19, 2017 (GMT -0500)
Tompkins County

Weather History for KITH - December, 2014

Change the Weather History Date:

Sunday, December 21, 2014

  Actual Average Record
Temperature  
Mean Temperature 28 °F -  
Max Temperature 31 °F 33 °F 60 °F (1957)
Min Temperature 26 °F 19 °F -9 °F (1962)
Degree Days  
Heating Degree Days 36    
Moisture  
Dew Point 22 °F    
Average Humidity 76    
Maximum Humidity 85    
Minimum Humidity 66    
Precipitation  
Precipitation 0.00 in - - ()
Sea Level Pressure  
Sea Level Pressure 30.33 in    
Wind  
Wind Speed 1 mph (ESE)    
Max Wind Speed 5 mph    
Max Gust Speed -    
Visibility 10 miles    
Events      
Averages and records for this station are not official NWS values.
T = Trace of Precipitation, MM = Missing Value Source: NWS Daily Summary

Daily Weather History Graph

Daily Weather History Graph

Search for Another Location

Airport or City:

Trip Planner

Search our weather history database for the weather conditions in past years. The results will help you decide how hot, cold, wet, or windy it might be!

Date:

Astronomy

Dec. 21, 2014 Rise Set
Actual Time 7:32 AM EST 4:35 PM EST
Civil Twilight 7:00 AM EST 5:07 PM EST
Nautical Twilight 6:24 AM EST 5:43 PM EST
Astronomical Twilight 5:50 AM EST 6:17 PM EST
Moon 6:44 AM EST (12/21) 4:41 PM EST (12/21)
Length of Visible Light 10h 07m
Length of Day
9h 03m
Waning Crescent, 0% of the Moon is Illuminated
Dec 21
Waning Crescent
Dec 21
New
Dec 28
First Quarter
Jan 4
Full
Jan 13
Last Quarter

Hourly Weather History & Observations

Time (EST) Temp. Windchill Dew Point Humidity Pressure Visibility Wind Dir Wind Speed Gust Speed Precip Events Conditions
12:56 AM 27.1 °F 23.2 °F 22.1 °F 81% 30.30 in 10.0 mi SSE 3.5 mph - N/A   Overcast
1:56 AM 26.1 °F - 22.1 °F 85% 30.30 in 10.0 mi Calm Calm - N/A   Overcast
2:56 AM 27.1 °F 23.2 °F 22.1 °F 81% 30.31 in 10.0 mi SSE 3.5 mph - N/A   Overcast
3:56 AM 27.1 °F - 22.1 °F 81% 30.31 in 10.0 mi Calm Calm - N/A   Overcast
4:56 AM 27.1 °F - 22.1 °F 81% 30.31 in 10.0 mi Calm Calm - N/A   Overcast
5:56 AM 27.1 °F - 22.1 °F 81% 30.31 in 10.0 mi Calm Calm - N/A   Overcast
6:56 AM 27.1 °F - 22.1 °F 81% 30.32 in 10.0 mi Calm Calm - N/A   Overcast
7:56 AM 27.1 °F - 22.1 °F 81% 30.34 in 10.0 mi Calm Calm - N/A   Overcast
8:56 AM 28.0 °F - 22.1 °F 78% 30.35 in 10.0 mi Calm Calm - N/A   Overcast
9:56 AM 28.0 °F - 22.1 °F 78% 30.36 in 10.0 mi Calm Calm - N/A   Overcast
10:23 AM 28.4 °F - 21.2 °F 74% 30.32 in 10.0 mi Calm Calm - N/A   Overcast
10:30 AM 30.2 °F - 23.0 °F 75% 30.32 in 10.0 mi Calm Calm - N/A   Overcast
10:56 AM 30.0 °F - 22.1 °F 72% 30.36 in 10.0 mi Calm Calm - N/A   Overcast
11:56 AM 31.1 °F - 21.0 °F 66% 30.34 in 10.0 mi Calm Calm - N/A   Overcast
12:56 PM 30.0 °F - 22.1 °F 72% 30.33 in 10.0 mi Calm Calm - N/A   Overcast
1:56 PM 31.1 °F 26.4 °F 23.0 °F 72% 30.32 in 10.0 mi NNW 4.6 mph - N/A   Overcast
2:56 PM 31.1 °F - 21.0 °F 66% 30.32 in 10.0 mi Calm Calm - N/A   Overcast
3:56 PM 31.1 °F - 22.1 °F 69% 30.32 in 10.0 mi Calm Calm - N/A   Overcast
4:56 PM 30.0 °F - 22.1 °F 72% 30.33 in 10.0 mi Calm Calm - N/A   Overcast
5:56 PM 30.0 °F - 23.0 °F 75% 30.35 in 10.0 mi Calm Calm - N/A   Overcast
6:56 PM 29.1 °F 25.4 °F 22.1 °F 75% 30.35 in 10.0 mi East 3.5 mph - N/A   Overcast
7:56 PM 29.1 °F - 22.1 °F 75% 30.35 in 10.0 mi Calm Calm - N/A   Overcast
8:56 PM 28.0 °F - 22.1 °F 78% 30.36 in 10.0 mi Calm Calm - N/A   Overcast
9:56 PM 28.0 °F - 22.1 °F 78% 30.36 in 10.0 mi Calm Calm - N/A   Overcast
10:56 PM 27.1 °F 23.2 °F 21.0 °F 78% 30.35 in 10.0 mi ESE 3.5 mph - N/A   Overcast
11:56 PM 28.0 °F 22.8 °F 22.1 °F 78% 30.34 in 10.0 mi SE 4.6 mph - N/A   Overcast